Location: Martley
(52.2333°N, 2.3667°W)
Time: 20:44:36
(UTC+00:00)

Cosmos 1733 Rocket - Pass Details

Date: 11 December 2019
Orbit: 604 x 627 km, 82.5° (Epoch: 26 January)

Event Time Altitude Azimuth Distance (km) Brightness Sun altitude
Rises 06:19:42 0° 186° (S) 2,849 6.6 -15.4°
Reaches altitude 10° 06:21:54 10° 186° (S) 1,950 5.8 -15.1°
Maximum altitude 06:26:13 82° 99° (E) 619 3.1 -14.5°
Drops below altitude 10° 06:30:35 10° 12° (NNE) 1,970 5.6 -13.9°
Sets 06:32:48 0° 12° (NNE) 2,881 6.4 -13.5°
